Miscellaneous Local Product
Issued by NWS North Platte, NE

Home | Current Version | Previous Version | Graphics & Text | Print | Product List | Glossary On
Versions: 1 2 3 4 5 6 7 8 9 10 11 12 13 14 15 16 17 18 19 20 21 22 23 24 25 26 27 28 29 30 31 32 33 34 35 36 37 38 39 40 41 42 43 44 45 46 47 48 49 50
000
AXUS43 KLBF 011110
MISLBF


WESTERN AND NORTH CENTRAL NEBRASKA HOURLY WEATHER ROUNDUP
NATIONAL WEATHER SERVICE NORTH PLATTE NE
500 AM CST SUN MAR 01 2015

***STATIONS NOT REPORTING VARIABLES SUCH AS SKY/WEATHER OR
PRESSURE ARE PROVIDED BY THE NEBRASKA DEPARTMENT OF
ROADS...RAWS...AND APRS NETWORKS...AND ARE NOT UNDER
NATIONAL WEATHER SERVICE QUALITY CONTROL***

...OBSERVATIONS IN AND NEAR THE EASTERN PANHANDLE OF NEBRASKA...

CITY           SKY/WX    TMP DP  RH WIND       PRES   REMARKS
PINE RIDGE     CLOUDY    17  11  77 CALM      30.21R
CHADRON        CLOUDY    18  11  74 CALM      30.22R
ALLIANCE       CLOUDY    18  11  74 N7        30.17R WCI   9
SIDNEY         PTCLDY    13  10  88 CALM      30.13R
WHITECLAY        N/A     16  10  79 CALM        N/A
CRESCENT LAKE    N/A     18  12  76 E5          N/A  WCI  11
LISCO            N/A     23  14  69 CALM        N/A
BIG SPRINGS      N/A     13   8  79 CALM        N/A
LEWELLEN         N/A     13   8  79 CALM        N/A
$$

...OBSERVATIONS IN NORTH CENTRAL NEBRASKA...

CITY           SKY/WX    TMP DP  RH WIND       PRES   REMARKS
VALENTINE      CLOUDY    18   9  68 W3        30.24S
THEDFORD       CLOUDY    19  10  68 CALM      30.23R
AINSWORTH      CLOUDY    15   8  72 NW3       30.24R
O`NEILL        PTCLDY    14  11  87 N5        30.27R WCI   6
ORD            MOCLDY    15  10  80 CALM      30.25R
BROKEN BOW     CLOUDY    18  12  77 W3        30.22R
BROWNLEE         N/A     16   6  65 NW3         N/A
SPRINGVIEW       N/A     13   6  73 CALM        N/A
BREWSTER         N/A     22  11  64 N7          N/A  WCI  13
ROSE             N/A     21  17  83 W3          N/A
NEWPORT          N/A     22  18  81 W5          N/A  WCI  16
COMSTOCK         N/A     23  19  85 CALM        N/A
EWING            N/A     14  11  87 CALM        N/A
$$

...OBSERVATIONS IN SOUTHWEST NEBRASKA AND FAR NORTHEAST COLORADO...

CITY           SKY/WX    TMP DP  RH WIND       PRES   REMARKS
WRAY           CLOUDY    17  15  91 N5        30.15R WCI  10
IMPERIAL         N/A     16  11  80 CALM      30.18S
OGALLALA       MOCLDY    18  14  85 N3        30.19R
NORTH PLATTE   CLOUDY    20  14  77 NW3       30.22R
MCCOOK         CLOUDY    21  16  81 CALM      30.22R
LEXINGTON      MOCLDY    18  15  88 CALM      30.24S
PAXTON           N/A     21  16  79 CALM        N/A
BRADY            N/A     18  13  80 CALM        N/A
GOTHENBURG       N/A     19  14  79 CALM        N/A
CALLAWAY         N/A     19  15  82 W8          N/A  WCI   9
$$

...NORTH PLATTE AREA...

CITY           SKY/WX    TMP DP  RH WIND       PRES   REMARKS
AIRPORT        CLOUDY    20  14  77 NW3       30.22R
DOWNTOWN         N/A     19  13  76 CALM        N/A
$$

...SOME WEATHER OBSERVATIONS FROM AROUND THE REGION...

CITY           SKY/WX    TMP DP  RH WIND       PRES   REMARKS
DENVER         CLOUDY    12   8  84 SW6       30.07R WCI   3
LARAMIE        MOCLDY     5   3  91 W5        29.96R WCI  -4
CHEYENNE       PTCLDY    12   8  84 NW8       30.02S WCI   0
SCOTTSBLUFF    CLOUDY    19  10  68 N8        30.16R WCI   9
RAPID CITY     PTCLDY    11   7  84 W3        30.20R
PIERRE         MOCLDY    13   4  67 W12       30.25R WCI  -1
WINNER         CLOUDY    18   4  54 W7        30.27R WCI   9
SIOUX FALLS    MOCLDY    12   8  84 CALM      30.27R
OMAHA          MOCLDY    20  13  74 W5        30.35R WCI  13
GRAND ISLAND   CLOUDY    17  13  84 W7        30.28F WCI   8
KANSAS CITY    LGT SNOW  22  20  92 CALM      30.35R FOG
WICHITA        FOG       23  21  92 CALM      30.32R VSB 1/8
HAYS           CLOUDY    18   7  62 CALM      30.27S
LIBERAL        CLOUDY    23  18  80 S5        30.19S WCI  17
GOODLAND       CLOUDY    20  18  92 S7        30.14S WCI  11
$$



USA.gov is the U.S. government's official web portal to all federal, state and local government web resources and services.